Location: Vlissingen
(51.4500°N, 3.5830°E)
Time: 18:26:47
(UTC+02:00)

Daily predictions for brighter satellites

Satellite Brightness Start Highest point End
(mag) Time Altitude Azimuth Time Altitude Azimuth Time Altitude Azimuth
Cosmos 2218 Rocket 4.5 22:21:46 10° N 22:27:42 47° ENE 22:33:38 10° SE
Lacrosse 5 rocket 2.6 22:25:10 10° WNW 22:29:37 46° NNE 22:34:07 10° E
Cosmos 2369 4.0 22:25:03 10° NNW 22:30:47 73° WSW 22:36:28 10° SSE
Cosmos 1606 Rocket 3.7 22:28:41 10° NNW 22:33:01 75° W 22:37:19 10° S
Okean 1-7 Rocket 4.0 22:29:12 10° SSW 22:33:41 72° WNW 22:38:15 10° N
SL-16 R/B 3.8 22:30:43 10° NNW 22:35:25 26° NE 22:40:06 10° E
SPOT 5 2.7 22:31:22 10° SSE 22:35:41 74° ENE 22:40:08 10° NNW
Meteor 1-4 Rocket 3.1 22:33:52 10° N 22:37:20 43° ENE 22:40:44 10° SE
Cosmos 1452 Rocket 3.6 22:32:33 10° NNW 22:37:51 79° ENE 22:43:08 10° SSE
Okean 2 3.5 22:36:13 10° SSW 22:40:19 84° W 22:44:27 10° N
Cosmos 1726 Rocket 3.8 22:37:42 10° NNW 22:42:02 72° W 22:46:19 10° S
USA 229 DEB 4.0 22:35:10 10° NW 22:42:17 74° NE 22:49:32 10° SE
USA 229 4.0 22:35:16 10° NW 22:42:23 73° NE 22:49:38 10° SE
YAOGAN 6 4.1 22:39:20 10° SSW 22:42:31 32° W 22:45:44 10° NNW
Cosmos 1025 Rocket 3.5 22:39:11 10° SSW 22:43:25 63° WNW 22:47:41 10° N
SL-24 DEB 4.3 22:39:34 10° SSE 22:44:10 70° E 22:48:50 10° N
MetOp-A 4.4 22:39:00 10° S 22:44:21 72° WSW 22:49:44 10° NNW
Cosmos 1833 Rocket 3.2 22:42:00 10° S 22:47:07 38° ESE 22:52:17 10° NE
ERS-1 Rocket 3.8 22:43:46 10° S 22:48:38 51° W 22:53:33 10° NNW
SL-08 RB Rocket 3.7 22:44:26 10° SSE 22:48:54 82° ENE 22:53:25 10° NNW
SPOT 1/Viking Rocket 3.6 22:48:06 10° SSE 22:53:16 80° ENE 22:58:27 10° NNW
Cosmos 2181 Rocket 4.0 22:47:26 10° S 22:53:46 75° E 23:00:01 10° NNE
USA 234 4.0 22:48:45 10° ENE 22:55:06 55° N 23:01:27 10° WNW
USA 245 2.5 22:55:11 10° S 22:57:32 54° WSW 22:59:44 10° NNW
CARTOSAT-1 4.2 22:55:32 11° SE 22:59:31 43° ENE 23:03:38 10° N
Cosmos 2058 Rocket 3.5 22:56:57 10° NNW 23:01:19 63° W 23:05:44 10° S
COSMOS 2487 2.4 22:59:15 10° SSW 23:02:48 73° ESE 23:06:24 10° NNE
Cosmos 1066 Rocket 4.3 23:02:32 10° S 23:08:00 64° E 23:13:40 10° NNE
Orbus 7S? 4.3 22:59:21 10° WNW 23:08:46 90° N 23:12:36 11° ESE
ATLAS CENTAUR R/B 2.4 23:06:18 10° NNW 23:09:45 34° NE 23:13:06 10° ESE
IGS 5A 3.9 23:06:40 13° SE 23:10:16 50° ENE 23:14:20 10° N
Cosmos 2360 Rocket 4.1 23:09:07 10° NNW 23:13:35 23° NE 23:18:02 10° E
Cosmos 1980 Rocket 2.2 23:09:51 10° NNW 23:15:34 85° ENE 23:20:31 14° SSE
ISS -3.9 23:13:15 10° WSW 23:16:34 80° SSE 23:19:52 10° E
Cosmos 1271 Rocket 3.2 23:12:56 10° N 23:16:45 50° ENE 23:19:47 15° SE
Cosmos 1842 4.3 23:17:33 15° SE 23:20:09 29° E 23:23:35 10° NNE
Cosmos 1812 Rocket 3.7 23:16:35 10° N 23:21:06 70° ENE 23:24:49 15° SSE
ARGOS 4.0 23:17:20 10° S 23:22:32 47° W 23:27:49 10° NNW
SL-8 Rocket 4.3 23:17:13 10° NNW 23:23:26 67° W 23:29:39 10° S
H-2A R/B 2.2 23:20:19 14° SSE 23:24:09 72° ENE 23:28:41 10° NNW
CZ-4C R/B 4.5 23:22:23 13° ESE 23:24:56 28° ENE 23:28:10 10° N
Cosmos 2322 Rocket 2.9 23:21:39 10° NNW 23:27:10 47° NE 23:32:15 12° ESE
Cosmos 1544 3.4 23:25:42 10° N 23:29:16 52° ENE 23:31:44 18° SSE
Cosmos 2366 rocket 4.1 23:24:06 10° NNW 23:30:17 77° W 23:36:12 11° S
CZ-4B R/B 4.4 23:27:28 10° NNE 23:32:02 32° E 23:35:25 16° SSE
Cosmos 1626 Rocket 3.5 23:30:32 10° S 23:34:48 83° E 23:39:10 10° NNE
Meteor 1-21 4.4 23:34:35 13° S 23:39:37 60° E 23:45:19 10° NNE
H-2A R/B 2.7 23:36:10 10° S 23:40:58 48° W 23:45:56 10° NNW
Cosmos 1953 2.8 23:41:35 10° N 23:45:35 51° ENE 23:48:11 20° SE
Landsat 7 4.4 23:43:22 13° S 23:47:33 52° W 23:52:14 10° NNW
Cosmos 1825 Rocket 4.1 23:46:06 19° SSE 23:48:44 40° E 23:52:48 10° NNE
Cosmos 1766 3.8 23:49:32 10° NNW 23:53:22 52° W 23:56:17 16° SSW
